Time,TemperatureF,DewpointF,PressureIn,WindDirection,WindDirectionDegrees,WindSpeedMPH,WindSpeedGustMPH,Humidity,HourlyPrecipIn,Conditions,Clouds,dailyrainin,SolarRadiationWatts/m^2,SoftwareType,DateUTC
2013-03-04 00:01:00,32.0,31.0,-100.00,SW,232,16.0,22.0,96,-99.99,,,-99.99,0.080000,,2013-03-04 07:01:00,
2013-03-04 00:11:00,31.0,31.0,-100.00,SW,234,16.0,19.0,96,-99.99,,,-99.99,0.060000,,2013-03-04 07:11:00,
2013-03-04 00:21:00,31.0,31.0,-100.00,SW,234,16.0,19.0,96,-99.99,,,-99.99,0.060000,,2013-03-04 07:21:00,
2013-03-04 00:31:00,31.0,30.0,-100.00,SW,230,16.0,21.0,96,-99.99,,,-99.99,0.090000,,2013-03-04 07:31:00,
2013-03-04 00:41:00,31.0,30.0,-100.00,WSW,245,14.0,19.0,96,-99.99,,,-99.99,0.100000,,2013-03-04 07:41:00,
2013-03-04 00:51:00,30.0,30.0,-100.00,SW,229,18.0,20.0,96,-99.99,,,-99.99,0.120000,,2013-03-04 07:51:00,
2013-03-04 01:01:00,30.0,29.0,-100.00,SW,231,17.0,23.0,96,-99.99,,,-99.99,0.110000,,2013-03-04 08:01:00,
2013-03-04 01:11:00,30.0,29.0,-100.00,SW,232,16.0,22.0,96,-99.99,,,-99.99,0.100000,,2013-03-04 08:11:00,
2013-03-04 01:21:00,30.0,29.0,-100.00,SW,232,16.0,22.0,96,-99.99,,,-99.99,0.100000,,2013-03-04 08:21:00,
2013-03-04 01:31:00,30.0,29.0,-100.00,WSW,238,14.0,20.0,96,-99.99,,,-99.99,0.080000,,2013-03-04 08:31:00,
2013-03-04 01:41:00,29.0,28.0,-100.00,SW,235,18.0,24.0,96,-99.99,,,-99.99,0.100000,,2013-03-04 08:41:00,
2013-03-04 01:52:00,29.0,28.0,-100.00,SW,236,16.0,23.0,96,-99.99,,,-99.99,0.140000,,2013-03-04 08:52:00,
2013-03-04 02:01:00,29.0,28.0,-100.00,SW,236,16.0,23.0,96,-99.99,,,-99.99,0.140000,,2013-03-04 09:01:00,
2013-03-04 02:11:00,29.0,28.0,-100.00,WSW,238,17.0,23.0,96,-99.99,,,-99.99,0.070000,,2013-03-04 09:11:00,
2013-03-04 02:21:00,28.0,27.0,-100.00,SW,235,18.0,23.0,96,-99.99,,,-99.99,0.080000,,2013-03-04 09:21:00,
2013-03-04 02:31:00,28.0,27.0,-100.00,SW,236,17.0,24.0,96,-99.99,,,-99.99,0.110000,,2013-03-04 09:31:00,
2013-03-04 02:41:00,28.0,27.0,-100.00,WSW,241,17.0,22.0,96,-99.99,,,-99.99,0.060000,,2013-03-04 09:41:00,
2013-03-04 02:51:00,27.0,27.0,-100.00,SW,233,19.0,23.0,96,-99.99,,,-99.99,0.040000,,2013-03-04 09:51:00,
2013-03-04 03:01:00,27.0,26.0,-100.00,SW,232,16.0,24.0,96,-99.99,,,-99.99,0.020000,,2013-03-04 10:01:00,
2013-03-04 03:11:00,27.0,26.0,-100.00,SW,232,16.0,24.0,96,-99.99,,,-99.99,0.020000,,2013-03-04 10:11:00,
2013-03-04 03:21:00,26.0,25.0,-100.00,WSW,243,15.0,18.0,95,-99.99,,,-99.99,0.020000,,2013-03-04 10:21:00,
2013-03-04 03:31:00,25.0,24.0,-100.00,WSW,251,13.0,18.0,94,-99.99,,,-99.99,0.040000,,2013-03-04 10:31:00,
2013-03-04 03:41:00,25.0,24.0,-100.00,WSW,245,12.0,18.0,94,-99.99,,,-99.99,0.010000,,2013-03-04 10:41:00,
2013-03-04 03:52:00,25.0,24.0,-100.00,WSW,245,12.0,18.0,94,-99.99,,,-99.99,0.010000,,2013-03-04 10:52:00,
2013-03-04 04:01:00,25.0,23.0,-100.00,WSW,239,14.0,18.0,93,-99.99,,,-99.99,0.060000,,2013-03-04 11:01:00,
2013-03-04 04:11:00,25.0,23.0,-100.00,WSW,237,14.0,18.0,92,-99.99,,,-99.99,0.040000,,2013-03-04 11:11:00,
2013-03-04 04:21:00,24.0,22.0,-100.00,WSW,247,12.0,17.0,92,-99.99,,,-99.99,0.010000,,2013-03-04 11:21:00,
2013-03-04 04:31:00,24.0,22.0,-100.00,SW,235,13.0,19.0,91,-99.99,,,-99.99,0.010000,,2013-03-04 11:31:00,
2013-03-04 04:41:00,24.0,22.0,-100.00,WSW,246,13.0,19.0,90,-99.99,,,-99.99,0.010000,,2013-03-04 11:41:00,
2013-03-04 04:52:00,24.0,21.0,-100.00,WSW,246,16.0,18.0,88,-99.99,,,-99.99,0.020000,,2013-03-04 11:52:00,
2013-03-04 05:01:00,24.0,21.0,-100.00,WSW,246,16.0,18.0,88,-99.99,,,-99.99,0.020000,,2013-03-04 12:01:00,
2013-03-04 05:11:00,24.0,20.0,-100.00,WSW,245,16.0,21.0,85,-99.99,,,-99.99,0.000000,,2013-03-04 12:11:00,
2013-03-04 05:21:00,24.0,20.0,-100.00,WSW,254,16.0,24.0,82,-99.99,,,-99.99,0.000000,,2013-03-04 12:21:00,
2013-03-04 05:32:00,24.0,20.0,-100.00,WSW,254,16.0,24.0,82,-99.99,,,-99.99,0.000000,,2013-03-04 12:32:00,
2013-03-04 05:42:00,24.0,18.0,-100.00,WSW,256,16.0,23.0,78,-99.99,,,-99.99,0.000000,,2013-03-04 12:42:00,
2013-03-04 05:52:00,24.0,18.0,-100.00,WSW,256,16.0,23.0,78,-99.99,,,-99.99,0.000000,,2013-03-04 12:52:00,
2013-03-04 06:02:00,24.0,18.0,-100.00,WSW,255,17.0,23.0,78,-99.99,,,-99.99,0.000000,,2013-03-04 13:02:00,
2013-03-04 06:11:00,23.0,16.0,-100.00,West,259,17.0,23.0,74,-99.99,,,-99.99,0.010000,,2013-03-04 13:11:00,
2013-03-04 06:21:00,23.0,16.0,-100.00,West,259,17.0,23.0,74,-99.99,,,-99.99,0.010000,,2013-03-04 13:21:00,
2013-03-04 06:31:00,23.0,17.0,-100.00,WSW,252,17.0,22.0,77,-99.99,,,-99.99,0.000000,,2013-03-04 13:31:00,
2013-03-04 06:41:00,23.0,17.0,-100.00,WSW,250,17.0,22.0,78,-99.99,,,-99.99,0.000000,,2013-03-04 13:41:00,
2013-03-04 06:51:00,22.0,17.0,-100.00,SW,229,17.0,22.0,78,-99.99,,,-99.99,0.000000,,2013-03-04 13:51:00,
2013-03-04 07:01:00,22.0,16.0,-100.00,WSW,241,17.0,20.0,76,-99.99,,,-99.99,0.000000,,2013-03-04 14:01:00,
2013-03-04 07:11:00,21.0,14.0,-100.00,WSW,246,18.0,21.0,73,-99.99,,,-99.99,1.100000,,2013-03-04 14:11:00,
2013-03-04 07:22:00,21.0,14.0,-100.00,WSW,246,18.0,21.0,73,-99.99,,,-99.99,1.100000,,2013-03-04 14:22:00,
2013-03-04 07:31:00,21.0,12.0,-100.00,WSW,252,17.0,18.0,68,-99.99,,,-99.99,12.980000,,2013-03-04 14:31:00,
2013-03-04 07:41:00,21.0,12.0,-100.00,WSW,252,17.0,18.0,68,-99.99,,,-99.99,12.980000,,2013-03-04 14:41:00,
2013-03-04 07:52:00,20.0,11.0,-100.00,WSW,244,14.0,24.0,67,-99.99,,,-99.99,29.959999,,2013-03-04 14:52:00,
2013-03-04 08:01:00,21.0,10.0,-100.00,WSW,253,14.0,21.0,63,-99.99,,,-99.99,43.240002,,2013-03-04 15:01:00,
2013-03-04 08:11:00,21.0,10.0,-100.00,WSW,253,14.0,21.0,63,-99.99,,,-99.99,43.240002,,2013-03-04 15:11:00,
2013-03-04 08:21:00,21.0,9.0,-100.00,WSW,248,14.0,19.0,60,-99.99,,,-99.99,33.380001,,2013-03-04 15:21:00,
2013-03-04 08:31:00,21.0,9.0,-100.00,WSW,248,14.0,19.0,60,-99.99,,,-99.99,33.380001,,2013-03-04 15:31:00,
2013-03-04 08:41:00,21.0,10.0,-100.00,SW,230,15.0,20.0,60,-99.99,,,-99.99,129.199997,,2013-03-04 15:41:00,
2013-03-04 08:51:00,21.0,10.0,-100.00,SW,230,15.0,20.0,60,-99.99,,,-99.99,129.199997,,2013-03-04 15:51:00,
2013-03-04 09:02:00,20.0,8.0,-100.00,WSW,250,14.0,20.0,59,-99.99,,,-99.99,85.400002,,2013-03-04 16:02:00,
2013-03-04 09:11:00,20.0,8.0,-100.00,WSW,250,14.0,20.0,59,-99.99,,,-99.99,85.400002,,2013-03-04 16:11:00,
2013-03-04 09:21:00,20.0,8.0,-100.00,WSW,251,12.0,16.0,59,-99.99,,,-99.99,76.940002,,2013-03-04 16:21:00,
2013-03-04 09:31:00,20.0,8.0,-100.00,SW,233,13.0,16.0,60,-99.99,,,-99.99,202.399994,,2013-03-04 16:31:00,
2013-03-04 09:41:00,22.0,8.0,-100.00,WSW,241,14.0,18.0,55,-99.99,,,-99.99,487.299988,,2013-03-04 16:41:00,
2013-03-04 09:52:00,22.0,8.0,-100.00,WSW,241,14.0,18.0,55,-99.99,,,-99.99,487.299988,,2013-03-04 16:52:00,
2013-03-04 10:01:00,22.0,8.0,-100.00,WSW,250,14.0,21.0,54,-99.99,,,-99.99,513.700012,,2013-03-04 17:01:00,
2013-03-04 10:11:00,22.0,6.0,-100.00,SW,231,12.0,18.0,49,-99.99,,,-99.99,571.000000,,2013-03-04 17:11:00,
2013-03-04 10:21:00,22.0,6.0,-100.00,SW,231,12.0,18.0,49,-99.99,,,-99.99,571.000000,,2013-03-04 17:21:00,
2013-03-04 10:31:00,23.0,5.0,-100.00,WSW,250,11.0,19.0,46,-99.99,,,-99.99,598.900024,,2013-03-04 17:31:00,
2013-03-04 10:42:00,23.0,5.0,-100.00,SW,220,12.0,13.0,45,-99.99,,,-99.99,650.799988,,2013-03-04 17:42:00,
2013-03-04 10:52:00,23.0,4.0,-100.00,SW,224,13.0,18.0,42,-99.99,,,-99.99,679.900024,,2013-03-04 17:52:00,
2013-03-04 11:01:00,23.0,4.0,-100.00,SW,224,13.0,18.0,42,-99.99,,,-99.99,679.900024,,2013-03-04 18:01:00,
2013-03-04 11:11:00,23.0,5.0,-100.00,WSW,250,11.0,15.0,45,-99.99,,,-99.99,697.799988,,2013-03-04 18:11:00,
2013-03-04 11:21:00,23.0,5.0,-100.00,WSW,242,11.0,18.0,45,-99.99,,,-99.99,712.200012,,2013-03-04 18:21:00,
2013-03-04 11:31:00,23.0,5.0,-100.00,SW,222,11.0,15.0,44,-99.99,,,-99.99,728.599976,,2013-03-04 18:31:00,
2013-03-04 11:42:00,24.0,2.0,-100.00,SW,227,10.0,15.0,38,-99.99,,,-99.99,740.799988,,2013-03-04 18:42:00,
2013-03-04 11:51:00,25.0,1.0,-100.00,SW,223,10.0,18.0,34,-99.99,,,-99.99,743.599976,,2013-03-04 18:51:00,
2013-03-04 12:01:00,25.0,1.0,-100.00,SW,223,10.0,18.0,34,-99.99,,,-99.99,743.599976,,2013-03-04 19:01:00,
2013-03-04 12:11:00,25.0,4.0,-100.00,SW,228,8.0,13.0,39,-99.99,,,-99.99,790.400024,,2013-03-04 19:11:00,
2013-03-04 12:21:00,25.0,2.0,-100.00,SW,233,8.0,14.0,36,-99.99,,,-99.99,795.799988,,2013-03-04 19:21:00,
2013-03-04 12:31:00,25.0,1.0,-100.00,SW,227,11.0,18.0,33,-99.99,,,-99.99,803.000000,,2013-03-04 19:31:00,
2013-03-04 12:41:00,25.0,0.0,-100.00,SW,221,14.0,17.0,33,-99.99,,,-99.99,810.000000,,2013-03-04 19:41:00,
2013-03-04 12:51:00,25.0,0.0,-100.00,WSW,242,13.0,16.0,34,-99.99,,,-99.99,821.000000,,2013-03-04 19:51:00,
2013-03-04 13:01:00,25.0,2.0,-100.00,SW,223,10.0,15.0,36,-99.99,,,-99.99,819.000000,,2013-03-04 20:01:00,
2013-03-04 13:11:00,26.0,2.0,-100.00,SW,219,13.0,16.0,34,-99.99,,,-99.99,816.000000,,2013-03-04 20:11:00,
2013-03-04 13:21:00,25.0,1.0,-100.00,SSW,206,11.0,16.0,34,-99.99,,,-99.99,820.000000,,2013-03-04 20:21:00,
2013-03-04 13:31:00,25.0,1.0,-100.00,WSW,247,6.0,17.0,34,-99.99,,,-99.99,807.000000,,2013-03-04 20:31:00,
2013-03-04 13:41:00,25.0,1.0,-100.00,WSW,247,6.0,17.0,34,-99.99,,,-99.99,807.000000,,2013-03-04 20:41:00,
2013-03-04 13:52:00,25.0,3.0,-100.00,WSW,258,8.0,15.0,37,-99.99,,,-99.99,788.599976,,2013-03-04 20:52:00,
2013-03-04 14:01:00,25.0,3.0,-100.00,WSW,258,8.0,15.0,37,-99.99,,,-99.99,788.599976,,2013-03-04 21:01:00,
2013-03-04 14:11:00,27.0,6.0,-100.00,SW,227,9.0,15.0,40,-99.99,,,-99.99,777.700012,,2013-03-04 21:11:00,
2013-03-04 14:21:00,26.0,3.0,-100.00,SW,235,12.0,15.0,37,-99.99,,,-99.99,764.400024,,2013-03-04 21:21:00,
2013-03-04 14:31:00,27.0,4.0,-100.00,SSW,213,11.0,13.0,37,-99.99,,,-99.99,749.000000,,2013-03-04 21:31:00,
2013-03-04 14:42:00,26.0,6.0,-100.00,WSW,258,7.0,14.0,41,-99.99,,,-99.99,732.900024,,2013-03-04 21:42:00,
2013-03-04 14:52:00,26.0,6.0,-100.00,West,263,9.0,13.0,41,-99.99,,,-99.99,714.099976,,2013-03-04 21:52:00,
2013-03-04 15:01:00,28.0,5.0,-100.00,SW,215,7.0,11.0,36,-99.99,,,-99.99,673.900024,,2013-03-04 22:01:00,
2013-03-04 15:11:00,28.0,5.0,-100.00,SW,215,7.0,11.0,36,-99.99,,,-99.99,673.900024,,2013-03-04 22:11:00,
2013-03-04 15:21:00,26.0,6.0,-100.00,WSW,255,9.0,13.0,41,-99.99,,,-99.99,647.900024,,2013-03-04 22:21:00,
2013-03-04 15:31:00,25.0,5.0,-100.00,WSW,242,10.0,14.0,40,-99.99,,,-99.99,622.900024,,2013-03-04 22:31:00,
2013-03-04 15:42:00,27.0,8.0,-100.00,WSW,239,7.0,16.0,44,-99.99,,,-99.99,596.299988,,2013-03-04 22:42:00,
2013-03-04 15:51:00,26.0,7.0,-100.00,WSW,247,13.0,16.0,45,-99.99,,,-99.99,542.000000,,2013-03-04 22:51:00,
2013-03-04 16:01:00,26.0,7.0,-100.00,WSW,247,13.0,16.0,45,-99.99,,,-99.99,542.000000,,2013-03-04 23:01:00,
2013-03-04 16:11:00,25.0,8.0,-100.00,WSW,251,12.0,16.0,46,-99.99,,,-99.99,513.299988,,2013-03-04 23:11:00,
2013-03-04 16:21:00,25.0,9.0,-100.00,WSW,257,11.0,14.0,49,-99.99,,,-99.99,452.299988,,2013-03-04 23:21:00,
2013-03-04 16:31:00,25.0,9.0,-100.00,WSW,257,11.0,14.0,49,-99.99,,,-99.99,452.299988,,2013-03-04 23:31:00,
2013-03-04 16:41:00,25.0,9.0,-100.00,West,262,11.0,15.0,50,-99.99,,,-99.99,422.399994,,2013-03-04 23:41:00,
2013-03-04 16:52:00,25.0,10.0,-100.00,WSW,247,11.0,14.0,52,-99.99,,,-99.99,390.299988,,2013-03-04 23:52:00,
2013-03-04 17:01:00,26.0,10.0,-100.00,WSW,253,9.0,15.0,52,-99.99,,,-99.99,357.500000,,2013-03-05 00:01:00,
2013-03-04 17:11:00,26.0,10.0,-100.00,WSW,253,9.0,15.0,52,-99.99,,,-99.99,357.500000,,2013-03-05 00:11:00,
2013-03-04 17:21:00,25.0,10.0,-100.00,WSW,250,12.0,18.0,52,-99.99,,,-99.99,291.299988,,2013-03-05 00:21:00,
2013-03-04 17:32:00,24.0,10.0,-100.00,WSW,250,13.0,15.0,55,-99.99,,,-99.99,224.000000,,2013-03-05 00:32:00,
2013-03-04 17:41:00,24.0,10.0,-100.00,WSW,250,13.0,15.0,55,-99.99,,,-99.99,224.000000,,2013-03-05 00:41:00,
2013-03-04 17:51:00,24.0,11.0,-100.00,WSW,248,12.0,14.0,57,-99.99,,,-99.99,158.399994,,2013-03-05 00:51:00,
2013-03-04 18:01:00,24.0,11.0,-100.00,WSW,254,10.0,13.0,59,-99.99,,,-99.99,125.199997,,2013-03-05 01:01:00,
2013-03-04 18:11:00,23.0,11.0,-100.00,WSW,247,9.0,11.0,59,-99.99,,,-99.99,87.300003,,2013-03-05 01:11:00,
2013-03-04 18:21:00,23.0,11.0,-100.00,WSW,247,9.0,11.0,59,-99.99,,,-99.99,87.300003,,2013-03-05 01:21:00,
2013-03-04 18:32:00,22.0,11.0,-100.00,WSW,243,9.0,10.0,60,-99.99,,,-99.99,52.650002,,2013-03-05 01:32:00,
2013-03-04 18:41:00,22.0,11.0,-100.00,WSW,243,9.0,10.0,60,-99.99,,,-99.99,52.650002,,2013-03-05 01:41:00,
2013-03-04 18:51:00,20.0,11.0,-100.00,WSW,238,6.0,8.0,66,-99.99,,,-99.99,3.060000,,2013-03-05 01:51:00,
2013-03-04 19:01:00,20.0,11.0,-100.00,WSW,251,7.0,8.0,66,-99.99,,,-99.99,0.660000,,2013-03-05 02:01:00,
2013-03-04 19:11:00,20.0,11.0,-100.00,WSW,251,7.0,8.0,66,-99.99,,,-99.99,0.660000,,2013-03-05 02:11:00,
2013-03-04 19:21:00,19.0,11.0,-100.00,WNW,285,4.0,7.0,69,-99.99,,,-99.99,0.000000,,2013-03-05 02:21:00,
2013-03-04 19:31:00,19.0,11.0,-100.00,WNW,285,4.0,7.0,69,-99.99,,,-99.99,0.000000,,2013-03-05 02:31:00,
2013-03-04 19:41:00,19.0,11.0,-100.00,WNW,290,5.0,5.0,69,-99.99,,,-99.99,0.000000,,2013-03-05 02:41:00,
2013-03-04 19:52:00,19.0,11.0,-100.00,West,275,5.0,6.0,70,-99.99,,,-99.99,0.000000,,2013-03-05 02:52:00,
2013-03-04 20:01:00,18.0,10.0,-100.00,WNW,283,5.0,5.0,70,-99.99,,,-99.99,0.000000,,2013-03-05 03:01:00,
2013-03-04 20:11:00,18.0,10.0,-100.00,WNW,283,5.0,5.0,70,-99.99,,,-99.99,0.000000,,2013-03-05 03:11:00,
2013-03-04 20:21:00,18.0,10.0,-100.00,NW,304,4.0,5.0,71,-99.99,,,-99.99,0.000000,,2013-03-05 03:21:00,
2013-03-04 20:31:00,18.0,10.0,-100.00,WNW,291,3.0,5.0,71,-99.99,,,-99.99,0.000000,,2013-03-05 03:31:00,
2013-03-04 20:41:00,18.0,10.0,-100.00,WNW,301,4.0,5.0,70,-99.99,,,-99.99,0.000000,,2013-03-05 03:41:00,
2013-03-04 20:51:00,18.0,10.0,-100.00,WNW,295,4.0,5.0,71,-99.99,,,-99.99,0.000000,,2013-03-05 03:51:00,
2013-03-04 21:01:00,18.0,10.0,-100.00,WNW,295,4.0,5.0,71,-99.99,,,-99.99,0.000000,,2013-03-05 04:01:00,
2013-03-04 21:11:00,17.0,9.0,-100.00,West,272,1.0,4.0,71,-99.99,,,-99.99,0.000000,,2013-03-05 04:11:00,
2013-03-04 21:21:00,17.0,9.0,-100.00,West,272,1.0,4.0,71,-99.99,,,-99.99,0.000000,,2013-03-05 04:21:00,
2013-03-04 21:31:00,16.0,8.0,-100.00,ENE,66,6.0,6.0,70,-99.99,,,-99.99,0.000000,,2013-03-05 04:31:00,
2013-03-04 21:41:00,16.0,8.0,-100.00,ENE,66,6.0,6.0,70,-99.99,,,-99.99,0.000000,,2013-03-05 04:41:00,
2013-03-04 21:51:00,16.0,9.0,-100.00,ENE,58,3.0,6.0,74,-99.99,,,-99.99,0.000000,,2013-03-05 04:51:00,
2013-03-04 22:01:00,16.0,9.0,-100.00,NE,53,4.0,4.0,73,-99.99,,,-99.99,0.000000,,2013-03-05 05:01:00,
2013-03-04 22:11:00,16.0,10.0,-100.00,NE,40,4.0,5.0,74,-99.99,,,-99.99,0.000000,,2013-03-05 05:11:00,
2013-03-04 22:22:00,16.0,9.0,-100.00,ENE,69,3.0,6.0,73,-99.99,,,-99.99,0.000000,,2013-03-05 05:22:00,
2013-03-04 22:31:00,17.0,9.0,-100.00,East,85,5.0,5.0,72,-99.99,,,-99.99,0.000000,,2013-03-05 05:31:00,
2013-03-04 22:41:00,17.0,9.0,-100.00,East,85,5.0,5.0,72,-99.99,,,-99.99,0.000000,,2013-03-05 05:41:00,
2013-03-04 22:51:00,15.0,9.0,-100.00,NE,48,3.0,4.0,75,-99.99,,,-99.99,0.000000,,2013-03-05 05:51:00,
2013-03-04 23:01:00,15.0,9.0,-100.00,ENE,62,4.0,5.0,75,-99.99,,,-99.99,0.000000,,2013-03-05 06:01:00,
2013-03-04 23:11:00,14.0,8.0,-100.00,NE,47,3.0,4.0,75,-99.99,,,-99.99,0.000000,,2013-03-05 06:11:00,
2013-03-04 23:21:00,14.0,8.0,-100.00,NE,47,3.0,4.0,75,-99.99,,,-99.99,0.000000,,2013-03-05 06:21:00,
2013-03-04 23:31:00,14.0,8.0,-100.00,NE,55,4.0,4.0,75,-99.99,,,-99.99,0.000000,,2013-03-05 06:31:00,
2013-03-04 23:41:00,14.0,8.0,-100.00,NE,49,4.0,4.0,76,-99.99,,,-99.99,0.000000,,2013-03-05 06:41:00,
2013-03-04 23:52:00,14.0,8.0,-100.00,NE,54,4.0,4.0,75,-99.99,,,-99.99,0.000000,,2013-03-05 06:52:00,